HK6LRQ-25 Weather Reports


Display with metric or nautical units.
time (UTC)temp
F
wind
direction
speed
MPH
gust
MPH
rain 1hr
in
rain 24hr
in
rain mn
in
humidity
%
barometer
mb
20260507073603 56 127 4.0 2.0 0.00 0.00 0.00 84 1015.0
20260507070602 56 127 4.0 3.0 0.00 0.00 0.00 82 1015.0
20260507063600 56 127 4.0 3.0 0.00 0.00 0.00 85 1015.0
20260507060559 56 130 4.0 3.0 0.00 0.00 0.00 86 1016.0
20260507053558 56 129 4.0 3.0 0.00 0.00 0.00 86 1016.0
20260507050557 57 130 4.0 3.0 0.00 0.00 0.00 83 1016.0
20260507043556 57 130 4.0 3.0 0.00 0.00 0.00 86 1016.0
20260507040556 57 137 5.0 3.0 0.00 0.00 0.00 83 1016.0
20260507033554 58 137 5.0 3.0 0.00 0.00 0.00 86 1016.0
20260507030553 58 139 5.0 3.0 0.00 0.00 0.00 83 1016.0
20260507023552 59 139 5.0 3.0 0.00 0.00 0.00 87 1015.0
20260507020551 59 141 4.0 3.0 0.00 0.00 0.00 83 1015.0
20260507013550 60 141 4.0 3.0 0.00 0.00 0.00 86 1015.0
20260507010549 60 141 5.0 3.0 0.00 0.00 0.00 82 1014.0
20260507003548 61 141 5.0 3.0 0.00 0.00 0.00 87 1013.0
20260507000547 62 124 4.0 2.0 0.00 0.00 0.00 86 1012.0
20260506233546 68 124 4.0 2.0 0.00 0.00 0.00 86 1012.0
20260506230545 63 178 1.0 1.0 0.00 0.00 0.00 83 1011.0
20260506223544 69 178 1.0 1.0 0.00 0.00 0.00 83 1010.0
20260506220543 69 301 0.0 2.0 0.00 0.00 0.00 79 1009.0
20260506213542 70 301 0.0 2.0 0.00 0.00 0.00 80 1009.0
20260506210541 70 293 2.0 2.0 0.00 0.00 0.00 75 1009.0
20260506203540 70 293 2.0 2.0 0.00 0.00 0.00 72 1009.0
20260506200539 70 288 2.0 2.0 0.00 0.00 0.00 75 1009.0
20260506193538 71 288 2.0 2.0 0.00 0.00 0.00 75 1009.0
20260506190537 77 298 2.0 2.0 0.00 0.00 0.00 75 1010.0
20260506183536 71 298 2.0 2.0 0.00 0.00 0.00 70 1010.0
20260506180535 70 307 4.0 3.0 0.00 0.00 0.00 78 1011.0
20260506173534 70 307 3.0 2.0 0.00 0.00 0.00 71 1011.0
20260506170533 71 309 4.0 2.0 0.00 0.00 0.00 79 1013.0
20260506163532 71 309 4.0 2.0 0.00 0.00 0.00 73 1013.0
20260506160531 71 315 4.0 2.0 0.00 0.00 0.00 83 1014.0
20260506153530 66 315 4.0 2.0 0.00 0.00 0.00 78 1014.0
20260506150529 67 315 4.0 3.0 0.00 0.00 0.00 87 1016.0
20260506143527 67 315 4.0 3.0 0.00 0.00 0.00 81 1015.0
20260506140527 68 327 3.0 2.0 0.00 0.00 0.00 88 1016.0
20260506133526 59 327 3.0 2.0 0.00 0.00 0.00 84 1016.0
20260506130524 59 328 2.0 1.0 0.00 0.00 0.00 89 1016.0
20260506123524 60 328 2.0 1.0 0.00 0.00 0.00 87 1016.0
20260506120523 60 137 1.0 1.0 0.00 0.00 0.00 89 1016.0
20260506113522 60 145 1.0 1.0 0.00 0.00 0.00 89 1016.0
20260506110520 60 136 3.0 2.0 0.00 0.00 0.00 91 1016.0
20260506103519 60 136 3.0 2.0 0.00 0.00 0.00 91 1016.0
20260506100518 60 130 3.0 3.0 0.00 0.00 0.00 91 1015.0
20260506093517 60 130 3.0 3.0 0.00 0.00 0.00 91 1015.0
20260506090516 60 123 3.0 3.0 0.00 0.00 0.00 91 1015.0
20260506083515 60 123 3.0 3.0 0.00 0.00 0.00 91 1015.0
20260506080514 60 130 4.0 3.0 0.00 0.00 0.00 91 1015.0